Time,TemperatureF,DewpointF,PressureIn,WindDirection,WindDirectionDegrees,WindSpeedMPH,WindSpeedGustMPH,Humidity,HourlyPrecipIn,Conditions,Clouds,dailyrainin,SoftwareType,DateUTC
2013-02-10 00:02:00,16.9,15.7,30.23,ESE,112,2.7,-999.0,95,-99.99,,,0.00,Acu-Link.com,2013-02-10 05:02:00,
2013-02-10 00:17:00,16.9,15.5,30.22,ESE,112,2.7,-999.0,94,-99.99,,,0.00,Acu-Link.com,2013-02-10 05:17:00,
2013-02-10 00:32:00,16.2,15.0,30.22,ESE,112,1.7,-999.0,95,-99.99,,,0.00,Acu-Link.com,2013-02-10 05:32:00,
2013-02-10 00:48:00,14.5,13.1,30.22,ESE,112,0.0,-999.0,94,-99.99,,,0.00,Acu-Link.com,2013-02-10 05:48:00,
2013-02-10 01:03:00,13.3,13.1,30.22,ESE,112,1.7,-999.0,99,-99.99,,,0.00,Acu-Link.com,2013-02-10 06:03:00,
2013-02-10 01:18:00,13.1,12.9,30.22,ESE,112,0.0,-999.0,99,-99.99,,,0.00,Acu-Link.com,2013-02-10 06:18:00,
2013-02-10 01:33:00,12.6,12.4,30.22,ESE,112,1.7,-999.0,99,-99.99,,,0.00,Acu-Link.com,2013-02-10 06:33:00,
2013-02-10 01:49:00,12.6,12.4,30.21,ESE,112,0.0,-999.0,99,-99.99,,,0.00,Acu-Link.com,2013-02-10 06:49:00,
2013-02-10 02:04:00,12.4,12.2,30.21,ESE,112,0.0,-999.0,99,-99.99,,,0.00,Acu-Link.com,2013-02-10 07:04:00,
2013-02-10 02:19:00,11.5,11.3,30.21,SE,135,0.0,-999.0,99,-99.99,,,0.00,Acu-Link.com,2013-02-10 07:19:00,
2013-02-10 02:34:00,11.3,11.1,30.22,ESE,112,0.0,-999.0,99,-99.99,,,0.00,Acu-Link.com,2013-02-10 07:34:00,
2013-02-10 02:49:00,11.7,11.0,30.21,NNE,22,0.0,-999.0,97,-99.99,,,0.00,Acu-Link.com,2013-02-10 07:49:00,
2013-02-10 03:04:00,11.5,10.8,30.20,East,90,0.0,-999.0,97,-99.99,,,0.00,Acu-Link.com,2013-02-10 08:04:00,
2013-02-10 03:20:00,11.5,11.0,30.20,SE,135,0.0,-999.0,98,-99.99,,,0.00,Acu-Link.com,2013-02-10 08:20:00,
2013-02-10 03:35:00,12.7,12.0,30.20,ESE,112,2.2,-999.0,97,-99.99,,,0.00,Acu-Link.com,2013-02-10 08:35:00,
2013-02-10 03:50:00,12.9,11.3,30.20,ESE,112,0.0,-999.0,93,-99.99,,,0.00,Acu-Link.com,2013-02-10 08:50:00,
2013-02-10 04:19:00,13.1,10.2,30.20,ESE,112,0.0,-999.0,88,-99.99,,,0.00,Acu-Link.com,2013-02-10 09:19:00,
2013-02-10 04:34:00,14.5,13.6,30.19,SSE,157,1.7,-999.0,96,-99.99,,,0.00,Acu-Link.com,2013-02-10 09:34:00,
2013-02-10 04:49:00,15.8,14.4,30.18,ESE,112,1.7,-999.0,94,-99.99,,,0.00,Acu-Link.com,2013-02-10 09:49:00,
2013-02-10 05:04:00,16.0,14.1,30.18,ESE,112,2.2,-999.0,92,-99.99,,,0.00,Acu-Link.com,2013-02-10 10:04:00,
2013-02-10 05:19:00,16.7,13.0,30.18,ESE,112,1.7,-999.0,85,-99.99,,,0.00,Acu-Link.com,2013-02-10 10:19:00,
2013-02-10 05:35:00,17.4,12.0,30.17,ESE,112,1.7,-999.0,79,-99.99,,,0.00,Acu-Link.com,2013-02-10 10:35:00,
2013-02-10 05:50:00,16.9,11.8,30.18,ESE,112,0.0,-999.0,80,-99.99,,,0.00,Acu-Link.com,2013-02-10 10:50:00,
2013-02-10 06:05:00,16.9,11.8,30.19,North,0,0.0,-999.0,80,-99.99,,,0.00,Acu-Link.com,2013-02-10 11:05:00,
2013-02-10 06:20:00,16.9,11.2,30.19,East,90,0.0,-999.0,78,-99.99,,,0.00,Acu-Link.com,2013-02-10 11:20:00,
2013-02-10 06:36:00,18.0,11.1,30.20,ESE,112,0.0,-999.0,74,-99.99,,,0.00,Acu-Link.com,2013-02-10 11:36:00,
2013-02-10 06:51:00,19.0,11.5,30.20,South,180,2.7,-999.0,72,-99.99,,,0.00,Acu-Link.com,2013-02-10 11:51:00,
2013-02-10 07:06:00,18.9,11.1,30.20,East,90,2.2,-999.0,71,-99.99,,,0.00,Acu-Link.com,2013-02-10 12:06:00,
2013-02-10 07:21:00,18.9,12.0,30.20,SE,135,1.1,-999.0,74,-99.99,,,0.00,Acu-Link.com,2013-02-10 12:21:00,
2013-02-10 07:36:00,19.4,11.9,30.20,SE,135,1.1,-999.0,72,-99.99,,,0.00,Acu-Link.com,2013-02-10 12:36:00,
2013-02-10 07:52:00,20.7,12.5,30.20,SSE,157,0.0,-999.0,70,-99.99,,,0.00,Acu-Link.com,2013-02-10 12:52:00,
2013-02-10 08:07:00,21.7,12.8,30.21,North,0,1.7,-999.0,68,-99.99,,,0.00,Acu-Link.com,2013-02-10 13:07:00,
2013-02-10 08:22:00,23.4,13.4,30.21,SE,135,1.7,-999.0,65,-99.99,,,0.00,Acu-Link.com,2013-02-10 13:22:00,
2013-02-10 08:37:00,24.6,14.5,30.20,ESE,112,1.7,-999.0,65,-99.99,,,0.00,Acu-Link.com,2013-02-10 13:37:00,
2013-02-10 08:52:00,25.9,15.1,30.20,SSW,202,0.0,-999.0,63,-99.99,,,0.00,Acu-Link.com,2013-02-10 13:52:00,
2013-02-10 09:08:00,27.3,14.5,30.20,WNW,292,1.7,-999.0,58,-99.99,,,0.00,Acu-Link.com,2013-02-10 14:08:00,
2013-02-10 09:23:00,27.7,13.7,30.21,NE,45,0.0,-999.0,55,-99.99,,,0.00,Acu-Link.com,2013-02-10 14:23:00,
2013-02-10 09:38:00,27.7,14.1,30.21,WNW,292,1.7,-999.0,56,-99.99,,,0.00,Acu-Link.com,2013-02-10 14:38:00,
2013-02-10 09:54:00,29.1,16.6,30.21,NNE,22,0.0,-999.0,59,-99.99,,,0.00,Acu-Link.com,2013-02-10 14:54:00,
2013-02-10 10:09:00,32.0,15.5,30.19,WSW,247,2.7,-999.0,50,-99.99,,,0.00,Acu-Link.com,2013-02-10 15:09:00,
2013-02-10 10:24:00,32.9,15.4,30.19,SSE,157,1.7,-999.0,48,-99.99,,,0.00,Acu-Link.com,2013-02-10 15:24:00,
2013-02-10 10:39:00,33.8,15.2,30.18,West,270,2.2,-999.0,46,-99.99,,,0.00,Acu-Link.com,2013-02-10 15:39:00,
2013-02-10 10:54:00,35.1,14.9,30.19,SSW,202,3.7,-999.0,43,-99.99,,,0.00,Acu-Link.com,2013-02-10 15:54:00,
2013-02-10 11:10:00,35.6,15.3,30.18,ESE,112,3.2,-999.0,43,-99.99,,,0.00,Acu-Link.com,2013-02-10 16:10:00,
2013-02-10 11:25:00,37.0,15.5,30.18,SSE,157,2.2,-999.0,41,-99.99,,,0.00,Acu-Link.com,2013-02-10 16:25:00,
2013-02-10 11:40:00,37.8,16.8,30.17,SE,135,0.0,-999.0,42,-99.99,,,0.00,Acu-Link.com,2013-02-10 16:40:00,
2013-02-10 11:56:00,38.3,16.1,30.18,East,90,3.2,-999.0,40,-99.99,,,0.00,Acu-Link.com,2013-02-10 16:56:00,
2013-02-10 12:11:00,38.3,16.7,30.17,ESE,112,2.2,-999.0,41,-99.99,,,0.01,Acu-Link.com,2013-02-10 17:11:00,
2013-02-10 12:26:00,37.9,18.0,30.15,SSE,157,1.7,-999.0,44,-99.99,,,0.01,Acu-Link.com,2013-02-10 17:26:00,
2013-02-10 12:41:00,40.6,18.8,30.14,SSW,202,3.2,-999.0,41,-99.99,,,0.02,Acu-Link.com,2013-02-10 17:41:00,
2013-02-10 12:56:00,40.1,18.3,30.13,SW,225,3.7,-999.0,41,-99.99,,,0.03,Acu-Link.com,2013-02-10 17:56:00,
2013-02-10 13:12:00,40.6,18.2,30.12,SSE,157,4.2,-999.0,40,-99.99,,,0.03,Acu-Link.com,2013-02-10 18:12:00,
2013-02-10 13:27:00,41.5,19.0,30.10,ESE,112,3.7,-999.0,40,-99.99,,,0.03,Acu-Link.com,2013-02-10 18:27:00,
2013-02-10 13:42:00,40.3,20.1,30.09,West,270,2.7,-999.0,44,-99.99,,,0.04,Acu-Link.com,2013-02-10 18:42:00,
2013-02-10 13:57:00,40.3,19.6,30.10,ENE,67,6.8,-999.0,43,-99.99,,,0.05,Acu-Link.com,2013-02-10 18:57:00,
2013-02-10 14:12:00,39.6,20.5,30.08,South,180,3.7,-999.0,46,-99.99,,,0.05,Acu-Link.com,2013-02-10 19:12:00,
2013-02-10 14:28:00,38.7,21.2,30.06,SSW,202,1.7,-999.0,49,-99.99,,,0.05,Acu-Link.com,2013-02-10 19:28:00,
2013-02-10 14:43:00,39.0,19.5,30.07,SW,225,6.8,-999.0,45,-99.99,,,0.05,Acu-Link.com,2013-02-10 19:43:00,
2013-02-10 14:58:00,39.4,19.3,30.07,SSE,157,3.7,-999.0,44,-99.99,,,0.06,Acu-Link.com,2013-02-10 19:58:00,
2013-02-10 15:13:00,39.2,19.7,30.07,NNW,337,3.2,-999.0,45,-99.99,,,0.06,Acu-Link.com,2013-02-10 20:13:00,
2013-02-10 15:28:00,38.1,20.2,30.07,ENE,67,3.2,-999.0,48,-99.99,,,0.06,Acu-Link.com,2013-02-10 20:28:00,
2013-02-10 15:44:00,37.8,20.4,30.06,SSW,202,3.2,-999.0,49,-99.99,,,0.06,Acu-Link.com,2013-02-10 20:44:00,
2013-02-10 15:59:00,38.1,20.2,30.06,SSE,157,4.7,-999.0,48,-99.99,,,0.06,Acu-Link.com,2013-02-10 20:59:00,
2013-02-10 16:14:00,37.4,20.9,30.05,SSE,157,5.3,-999.0,51,-99.99,,,0.06,Acu-Link.com,2013-02-10 21:14:00,
2013-02-10 16:29:00,36.9,21.4,30.06,West,270,3.7,-999.0,53,-99.99,,,0.06,Acu-Link.com,2013-02-10 21:29:00,
2013-02-10 16:45:00,36.3,20.8,30.07,ESE,112,4.2,-999.0,53,-99.99,,,0.06,Acu-Link.com,2013-02-10 21:45:00,
2013-02-10 17:00:00,36.0,21.0,30.06,NW,315,2.7,-999.0,54,-99.99,,,0.06,Acu-Link.com,2013-02-10 22:00:00,
2013-02-10 17:15:00,35.8,20.8,30.05,SSE,157,4.2,-999.0,54,-99.99,,,0.06,Acu-Link.com,2013-02-10 22:15:00,
2013-02-10 17:30:00,34.9,20.8,30.04,WSW,247,3.2,-999.0,56,-99.99,,,0.06,Acu-Link.com,2013-02-10 22:30:00,
2013-02-10 17:45:00,34.7,20.2,30.04,SSE,157,4.2,-999.0,55,-99.99,,,0.06,Acu-Link.com,2013-02-10 22:45:00,
2013-02-10 18:01:00,34.3,20.3,30.03,NNE,22,5.8,-999.0,56,-99.99,,,0.06,Acu-Link.com,2013-02-10 23:01:00,
2013-02-10 18:16:00,34.2,19.7,30.03,WSW,247,3.7,-999.0,55,-99.99,,,0.06,Acu-Link.com,2013-02-10 23:16:00,
2013-02-10 18:31:00,34.0,20.4,30.03,ENE,67,4.7,-999.0,57,-99.99,,,0.06,Acu-Link.com,2013-02-10 23:31:00,
2013-02-10 18:46:00,33.8,20.2,30.03,ESE,112,2.7,-999.0,57,-99.99,,,0.06,Acu-Link.com,2013-02-10 23:46:00,
2013-02-10 19:01:00,33.6,20.0,30.03,WNW,292,1.1,-999.0,57,-99.99,,,0.06,Acu-Link.com,2013-02-11 00:01:00,
2013-02-10 19:17:00,33.6,20.4,30.02,South,180,3.7,-999.0,58,-99.99,,,0.06,Acu-Link.com,2013-02-11 00:17:00,
2013-02-10 19:32:00,33.4,20.2,30.03,SW,225,7.3,-999.0,58,-99.99,,,0.06,Acu-Link.com,2013-02-11 00:32:00,
2013-02-10 19:47:00,33.4,20.2,30.03,WSW,247,2.7,-999.0,58,-99.99,,,0.06,Acu-Link.com,2013-02-11 00:47:00,
2013-02-10 20:02:00,33.4,20.2,30.03,NNE,22,4.2,-999.0,58,-99.99,,,0.06,Acu-Link.com,2013-02-11 01:02:00,
2013-02-10 20:18:00,33.6,20.4,30.02,ESE,112,3.7,-999.0,58,-99.99,,,0.06,Acu-Link.com,2013-02-11 01:18:00,
2013-02-10 20:33:00,34.0,23.5,30.02,ESE,112,4.2,-999.0,65,-99.99,,,0.06,Acu-Link.com,2013-02-11 01:33:00,
2013-02-10 20:48:00,33.8,21.8,30.00,SSE,157,3.7,-999.0,61,-99.99,,,0.06,Acu-Link.com,2013-02-11 01:48:00,
2013-02-10 21:03:00,34.2,21.0,29.98,SSE,157,3.7,-999.0,58,-99.99,,,0.06,Acu-Link.com,2013-02-11 02:03:00,
2013-02-10 21:18:00,34.5,20.4,29.99,ESE,112,5.3,-999.0,56,-99.99,,,0.06,Acu-Link.com,2013-02-11 02:18:00,
2013-02-10 21:34:00,34.7,20.6,29.98,South,180,1.7,-999.0,56,-99.99,,,0.06,Acu-Link.com,2013-02-11 02:34:00,
2013-02-10 21:49:00,34.9,20.8,29.99,WNW,292,4.7,-999.0,56,-99.99,,,0.06,Acu-Link.com,2013-02-11 02:49:00,
2013-02-10 22:04:00,35.1,20.6,29.99,South,180,6.8,-999.0,55,-99.99,,,0.06,Acu-Link.com,2013-02-11 03:04:00,
2013-02-10 22:19:00,34.9,20.8,29.96,East,90,5.3,-999.0,56,-99.99,,,0.06,Acu-Link.com,2013-02-11 03:19:00,
2013-02-10 22:34:00,34.9,20.8,29.96,ESE,112,4.7,-999.0,56,-99.99,,,0.06,Acu-Link.com,2013-02-11 03:34:00,
2013-02-10 22:50:00,35.1,21.4,29.95,East,90,3.7,-999.0,57,-99.99,,,0.06,Acu-Link.com,2013-02-11 03:50:00,
2013-02-10 23:05:00,35.1,21.0,29.94,SE,135,5.8,-999.0,56,-99.99,,,0.06,Acu-Link.com,2013-02-11 04:05:00,
2013-02-10 23:20:00,35.4,21.3,29.94,South,180,3.7,-999.0,56,-99.99,,,0.06,Acu-Link.com,2013-02-11 04:20:00,
2013-02-10 23:35:00,35.2,24.3,29.96,SE,135,5.8,-999.0,64,-99.99,,,0.06,Acu-Link.com,2013-02-11 04:35:00,
2013-02-10 23:50:00,34.3,25.9,29.93,South,180,6.3,-999.0,71,-99.99,,,0.06,Acu-Link.com,2013-02-11 04:50:00,